TimeCET,TemperatureF,Dew PointF,Humidity,Sea Level PressureIn,VisibilityMPH,Wind Direction,Wind SpeedMPH,Gust SpeedMPH,PrecipitationIn,Events,Conditions,WindDirDegrees,DateUTC
12:00 AM,42.8,30.2,61,30.12,-9999.0,WNW,6.9,-,N/A,,Clear,300,2013-02-25 23:00:00
12:30 AM,41.0,32.0,70,30.12,-9999.0,NW,4.6,-,N/A,,Clear,310,2013-02-25 23:30:00
1:00 AM,45,30,43,30.13,12,NW,6.9,,,,,320,2013-02-26 00:00:00
1:00 AM,41.0,32.0,70,30.09,-9999.0,NW,6.9,-,N/A,,Clear,320,2013-02-26 00:00:00
1:30 AM,39.2,32.0,75,30.09,-9999.0,NW,5.8,-,N/A,,Clear,310,2013-02-26 00:30:00
2:00 AM,41.0,32.0,70,30.12,-9999.0,NW,4.6,-,N/A,,Clear,310,2013-02-26 01:00:00
2:30 AM,41.0,32.0,70,30.12,-9999.0,WNW,11.5,-,N/A,,Clear,300,2013-02-26 01:30:00
3:00 AM,41.0,32.0,70,30.12,-9999.0,WNW,8.1,-,N/A,,Clear,300,2013-02-26 02:00:00
3:30 AM,37.4,32.0,81,30.12,-9999.0,WNW,9.2,-,N/A,,Clear,300,2013-02-26 02:30:00
4:00 AM,37.4,32.0,81,30.12,-9999.0,WNW,9.2,-,N/A,,Clear,300,2013-02-26 03:00:00
4:30 AM,37.4,32.0,81,30.12,-9999.0,WNW,8.1,-,N/A,,Clear,300,2013-02-26 03:30:00
5:00 AM,37.4,32.0,81,30.12,-9999.0,WNW,8.1,-,N/A,,Clear,300,2013-02-26 04:00:00
5:30 AM,35.6,32.0,87,30.12,-9999.0,WNW,11.5,-,N/A,,Clear,300,2013-02-26 04:30:00
6:00 AM,35.6,30.2,81,30.12,-9999.0,NW,8.1,-,N/A,,Clear,310,2013-02-26 05:00:00
7:00 AM,37,32,75,30.14,12,WNW,8.1,,,,,300,2013-02-26 06:00:00
7:00 AM,35.6,30.2,81,30.12,-9999.0,WNW,8.1,-,N/A,,Clear,300,2013-02-26 06:00:00
7:30 AM,35.6,30.2,81,30.12,-9999.0,WNW,10.4,-,N/A,,Clear,300,2013-02-26 06:30:00
8:00 AM,35.6,30.2,81,30.12,-9999.0,WNW,10.4,-,N/A,,Clear,300,2013-02-26 07:00:00
8:30 AM,35.6,32.0,87,30.12,-9999.0,WNW,11.5,-,N/A,,Clear,300,2013-02-26 07:30:00
9:00 AM,37.4,32.0,81,30.12,6.2,WNW,9.2,-,N/A,,Partly Cloudy,300,2013-02-26 08:00:00
9:30 AM,41.0,32.0,70,30.15,6.2,NW,6.9,-,N/A,,Partly Cloudy,310,2013-02-26 08:30:00
10:00 AM,42.8,33.8,70,30.15,6.2,NW,8.1,-,N/A,,Scattered Clouds,310,2013-02-26 09:00:00
10:30 AM,46.4,33.8,62,30.15,6.2,NW,6.9,-,N/A,,Scattered Clouds,310,2013-02-26 09:30:00
11:00 AM,50.0,32.0,50,30.15,6.2,WNW,6.9,-,N/A,,Scattered Clouds,300,2013-02-26 10:00:00
12:30 PM,48.2,19.4,32,30.12,6.2,Calm,Calm,-,N/A,,Partly Cloudy,0,2013-02-26 11:30:00
1:00 PM,57.2,33.8,41,30.12,6.2,ESE,11.5,-,N/A,,Partly Cloudy,110,2013-02-26 12:00:00
1:30 PM,57.2,32.0,38,30.12,6.2,SE,11.5,-,N/A,,Partly Cloudy,130,2013-02-26 12:30:00
2:00 PM,57.2,32.0,38,30.09,6.2,ESE,11.5,-,N/A,,Partly Cloudy,120,2013-02-26 13:00:00
2:30 PM,57.2,32.0,38,30.09,6.2,ESE,11.5,-,N/A,,Partly Cloudy,120,2013-02-26 13:30:00
3:00 PM,57.2,30.2,36,30.09,6.2,ESE,10.4,-,N/A,,Partly Cloudy,120,2013-02-26 14:00:00
3:30 PM,57.2,32.0,38,30.09,6.2,ESE,10.4,-,N/A,,Partly Cloudy,120,2013-02-26 14:30:00
4:00 PM,55.4,30.2,38,30.06,6.2,ESE,10.4,-,N/A,,Partly Cloudy,120,2013-02-26 15:00:00
4:30 PM,55.4,33.8,44,30.06,6.2,SE,10.4,-,N/A,,Partly Cloudy,130,2013-02-26 15:30:00
5:00 PM,55.4,33.8,44,30.06,6.2,ESE,10.4,-,N/A,,Partly Cloudy,120,2013-02-26 16:00:00
5:30 PM,55.4,33.8,44,30.06,6.2,ESE,9.2,-,N/A,,Partly Cloudy,120,2013-02-26 16:30:00
6:00 PM,55.4,32.0,41,30.06,6.2,ESE,10.4,-,N/A,,Partly Cloudy,120,2013-02-26 17:00:00
6:30 PM,53.6,33.8,47,30.06,6.2,ESE,9.2,-,N/A,,Partly Cloudy,110,2013-02-26 17:30:00
7:00 PM,55,32,29,30.09,25,ESE,8.1,,,,Scattered Clouds,110,2013-02-26 18:00:00
7:00 PM,51.8,33.8,50,30.06,6.2,ESE,8.1,-,N/A,,Partly Cloudy,110,2013-02-26 18:00:00
7:30 PM,51.8,32.0,47,30.09,6.2,East,5.8,-,N/A,,Partly Cloudy,90,2013-02-26 18:30:00
8:00 PM,50.0,35.6,58,30.09,6.2,East,5.8,-,N/A,,Partly Cloudy,100,2013-02-26 19:00:00
8:30 PM,51.8,33.8,50,30.09,6.2,East,6.9,-,N/A,,Partly Cloudy,100,2013-02-26 19:30:00
9:00 PM,50.0,35.6,58,30.09,6.2,East,6.9,-,N/A,,Partly Cloudy,100,2013-02-26 20:00:00
9:30 PM,51.8,35.6,54,30.09,6.2,East,8.1,-,N/A,,Partly Cloudy,100,2013-02-26 20:30:00
10:00 PM,51.8,32.0,47,30.09,6.2,East,8.1,-,N/A,,Partly Cloudy,100,2013-02-26 21:00:00
10:30 PM,50.0,33.8,54,30.09,6.2,East,8.1,-,N/A,,Partly Cloudy,100,2013-02-26 21:30:00
11:00 PM,50.0,33.8,54,30.09,6.2,East,10.4,-,N/A,,Partly Cloudy,100,2013-02-26 22:00:00
11:30 PM,50.0,35.6,58,30.09,6.2,ENE,4.6,-,N/A,,Partly Cloudy,70,2013-02-26 22:30:00